Regional Weather Roundup
Issued by NWS Cleveland, OH

Home | Current Version | Previous Version | Text Only | Print | Product List | Glossary Off
Versions: 1 2 3 4 5 6 7 8 9 10 11 12 13 14 15 16 17 18 19 20 21 22 23 24 25 26 27 28 29 30 31 32 33 34 35 36 37 38 39 40 41 42 43 44 45 46 47 48 49 50

000
ASUS41 KCLE 192002
RWRCLE
OHIO REGIONAL WEATHER ROUNDUP
NATIONAL WEATHER SERVICE CLEVELAND, OH
400 PM EDT FRI SEP 19 2014

NOTE: "FAIR" INDICATES FEW OR NO CLOUDS BELOW 12,000 FEET WITH NO
SIGNIFICANT WEATHER AND/OR OBSTRUCTIONS TO VISIBILITY.

OHZ001>008-015>018-024>027-034-035-043-044-192100-
   NORTHWEST OHIO

CITY           SKY/WX    TMP DP  RH WIND       PRES   REMARKS
DEFIANCE       MOSUNNY   71  48  43 VRB5      30.14F
FINDLAY        SUNNY     72  42  34 VRB5      30.14F
TOLEDO EXPRESS SUNNY     68  47  46 VRB3      30.15F
TOLEDO EXEC    SUNNY     68  52  56 E8        30.17F
LIMA           SUNNY     71  46  40 VRB7      30.15F
$$

OHZ009>014-019>023-028>033-038-089-192100-
   NORTHEAST OHIO

CITY           SKY/WX    TMP DP  RH WIND       PRES   REMARKS
CLE-HOPKINS    MOSUNNY   68  51  54 N6        30.18F
CLE-LAKEFRONT  MOSUNNY   66  54  65 NE12      30.17F
CUY CO. ARPT   PTSUNNY   70  48  46 SE7       30.18F
LORAIN-ELYRIA  SUNNY     71  47  42 SE7       30.17F
ASHTABULA      SUNNY     67  47  48 S7        30.19F
AKRON-CANTON   MOSUNNY   71  47  42 E3        30.17F
WOOSTER        SUNNY     71  45  39 VRB5      30.17F
MANSFIELD      SUNNY     71  43  36 SE7       30.16F
YOUNGSTOWN     MOSUNNY   68  49  50 CALM      30.18F
$$

OHZ042-051>053-060>062-070>072-077>081-192100-
  SOUTHWEST OHIO

CITY           SKY/WX    TMP DP  RH WIND       PRES   REMARKS
CINC-COVINGTON MOSUNNY   75  47  36 E9        30.11F
CINC-LUNKEN    SUNNY     76  48  37 NE5       30.11F
HAMILTON       SUNNY     75  51  43 E7        30.12F
DAYTON         MOSUNNY   74  44  34 N3        30.15S
WRIGHT-PAT AFB MOSUNNY   74  45  34 VRB3      30.13F
DAYTON GENERAL SUNNY     72  48  42 SE9       30.12F
WILMINGTON     SUNNY     74  43  32 S6        30.12F
$$

OHZ036-037-039>041-045>050-054>059-063>069-073>076-082>088-192100-
  CENTRAL AND SOUTHEAST OHIO

CITY           SKY/WX    TMP DP  RH WIND       PRES   REMARKS
COLUMBUS       MOSUNNY   76  43  30 VRB3      30.13F
OSU AIRPORT    SUNNY     73  44  35 E6        30.13F
BOLTON FIELD   SUNNY     73  46  38 SE5       30.14F
RICKENBACK AFB SUNNY     73  47  39 E5        30.12F
NEWARK         SUNNY     73  47  39 VRB7      30.14F
MARION         SUNNY     71  42  35 SE7       30.15F
LANCASTER      SUNNY     75  48  38 CALM      30.13F
ZANESVILLE     SUNNY     73  48  41 SW5       30.14F
NEW PHILLY     SUNNY     74  50  42 VRB3      30.15F
$$



USA.gov is the U.S. government's official web portal to all federal, state and local government web resources and services.